TITAN 3C TRANSTAGE DEB, 27721

Orbit data source: Space-Track

TITAN 3C TRANSTAGE DEB, 27721 is space debris in LEO originally from a launch on Fri, 15 Oct 1965 UTC launched from the Air Force Eastern Test Range (AFETR). Debris objects in space refer to the collection of defunct objects orbiting the Earth. Examples of debris include non-operational satellites, rocket bodies, and fragments generated from explosions, collisions, or faulty payload assembly.

Loading next visibility...
Identifier
27721, 1965-082UT
Orbit
LEO
Country
Flag of USUS
Related business
Manufacturer
Unknown
Mission
Spacecraft
Bus & Motor
Unknown
Mass
Unknown
Launch date (UTC)
1965-10-15 (61 years ago)
Launch vehicle
Unknown
Launch site
Air Force Eastern Test Range (AFETR)
Object type
Payload
Rocket body
Debris
Shape & HBR
Unknown shape, 0.1 m
Radar Cross Section
Small (<0.1 m²)

Expand to show TLE details & history
Last TLE update: 2 days ago

TLE from 2 days ago
0 TITAN 3C TRANSTAGE DEB
1 27721U 65082UT  26131.41288754  .00000929  00000-0  21622-3 0  9998
2 27721  31.6366 199.1699 0111998 246.5291 112.3534 14.47752790642667
Epoch: 2026-05-11T09:54Z
TLE epoch observation values (Epoch: 2026-05-11T09:54:33.483Z)
Latitude
-0.00003°
Longitude
-178.67164°
Altitude
762.648 km
Speed
7.459 km/s
True Right ascension
13h 16m 40s
True Declination
0° 00' 00"
Sunlit
Object was in full shadow at epoch
Visualization orbit readout
Latitude
Unknown
Longitude
Unknown
Altitude
Unknown
Speed
Unknown
Apparent Right ascension
Unknown
Apparent Declination
Unknown
Sunlit
N/A
Visualization observer readout
Local Sidereal Time
19:07:52
Azimuth
Unknown
Elevation
Unknown
Doppler factor
Unknown
Orbital elements
Apogee altitude
816.326 km
Perigee altitude
656.957 km
Semi-major axis
7,114.778 km
Eccentricity
0.0112
Inclination
31.6366°
RAAN
199.1699°
Arg. of periapsis
246.5291°
True anomaly
113.53399°
Mean anomaly
112.3534°
Eccentric anomaly
112.94433°
Mean motion
3.61661 °/min
Orbital period
99.54 mins
BSTAR
0.00021622

Documentation

Showing up to 5 results
|